Flag for Sweden Weather past 2 weeks in Helsingborg, Sweden

Now
46 °F

Cool.


Feels Like: 46 °F
Forecast: 56 / 60 °F
Wind: No wind

Location: Ljungbyhed

Current Time: Jul 30, 2015 at 3:17:28 AM

Latest Report: Jul 30, 2015 at 2:50 AM


Visibility: 3 mi

Pressure: 29.50 "Hg

Humidity: 100%

Dew point: 46 °F

Location of HelsingborgLocation

Historic Weather in Helsingborg — Graph

°F

Helsingborg temperature yesterday

Maximum temperature yesterday: 63 °F (at 10:20 AM)
Minimum temperature yesterday: 52 °F (at 10:20 PM)
Average temperature yesterday: 58 °F

Past Weeks' High & Low Weather Summary

 TemperatureHumidityPressure
High73 °F (Jul 22, 4:50 PM)100% (Jul 16, 4:50 AM)30.04 "Hg (Jul 16, 4:50 AM)
Low43 °F (Jul 17, 3:50 AM)36% (Jul 17, 3:50 PM)29.39 "Hg (Jul 25, 8:20 PM)
Average60 °F80%29.78 "Hg
* Reported Jul 15 1:20 AM — Jul 30 1:50 AM, Helsingborg, Weather by CustomWeather, © 2015

Note: Actual official high and low records may vary slightly from our data, if they occured in-between our weather recording intervals... More about our weather records

Advertising

Helsingborg weather history for previous 24 hours

 ConditionsComfort  
Time TempWeatherWind HumidityBarometerVisibility
1:50 AM
Thu, Jul 30
48 °FCool.No wind100%29.50 "HgN/A
1:20 AM48 °FCool.No wind94%29.50 "HgN/A
12:50 AM50 °FCool.No wind94%29.50 "HgN/A
12:20 AM50 °FCool.No wind100%29.50 "HgN/A
11:50 PM
Wed, Jul 29
52 °FPassing clouds.No wind94%29.50 "HgN/A
11:20 PM52 °FPassing clouds.No wind94%29.50 "HgN/A
10:50 PM52 °FPassing clouds.No wind94%29.50 "HgN/A
10:20 PM52 °FScattered clouds.No wind94%29.50 "HgN/A
9:50 PM54 °FScattered clouds.No wind88%29.50 "HgN/A
9:20 PM55 °FPassing clouds.No wind88%29.50 "HgN/A
8:50 PM55 °FScattered clouds.No wind88%29.50 "HgN/A
8:20 PM55 °FBroken clouds.1 mph88%29.50 "HgN/A
7:50 PM55 °FScattered clouds.5 mph88%29.50 "HgN/A
7:20 PM55 °FPartly sunny.1 mph94%29.50 "HgN/A
6:50 PM55 °FPassing clouds.3 mph88%29.50 "HgN/A
6:20 PM61 °FScattered clouds.9 mph72%29.50 "HgN/A
5:50 PM63 °FPassing clouds.10 mph68%29.50 "HgN/A
5:20 PM63 °FPassing clouds.8 mph73%29.50 "HgN/A
4:50 PM63 °FScattered clouds.9 mph73%29.50 "HgN/A
4:20 PM61 °FPassing clouds.5 mph77%29.50 "HgN/A
3:50 PM57 °FLight rain. Passing clouds.12 mph82%29.50 "HgN/A
3:20 PM61 °FPassing clouds.7 mph83%29.50 "HgN/A
2:50 PM59 °FScattered clouds.6 mph82%29.50 "HgN/A
2:20 PM57 °FRain. Scattered clouds.7 mph88%29.50 "Hg5 mi
1:50 PM61 °FScattered clouds.8 mph88%29.50 "HgN/A
1:20 PM61 °FDrizzle. Broken clouds.10 mph83%29.50 "HgN/A
12:50 PM63 °FBroken clouds.9 mph77%29.50 "HgN/A
12:20 PM61 °FPassing clouds.2 mph83%29.50 "HgN/A
11:50 AM59 °FBroken clouds.No wind88%29.50 "HgN/A
11:20 AM61 °FDrizzle. Broken clouds.7 mph83%29.50 "HgN/A
10:50 AM61 °FBroken clouds.10 mph77%29.50 "HgN/A
10:20 AM63 °FScattered clouds.9 mph73%29.50 "HgN/A
9:20 AM61 °FBroken clouds.9 mph77%29.50 "HgN/A
8:50 AM61 °FScattered clouds.9 mph83%29.47 "HgN/A
8:20 AM59 °FScattered clouds.9 mph82%29.47 "HgN/A
7:50 AM59 °FPartly sunny.10 mph88%29.47 "HgN/A
7:20 AM59 °FBroken clouds.10 mph88%29.47 "HgN/A
6:50 AM59 °FBroken clouds.5 mph88%29.47 "HgN/A
6:20 AM59 °FBroken clouds.9 mph88%29.47 "HgN/A
5:50 AM59 °FPartly cloudy.8 mph88%29.47 "HgN/A
5:20 AM59 °FOvercast.8 mph88%29.47 "HgN/A
4:50 AM59 °FOvercast.10 mph88%29.47 "HgN/A
4:20 AM59 °FOvercast.9 mph88%29.47 "HgN/A
3:50 AM59 °FOvercast.8 mph88%29.47 "HgN/A
3:20 AM59 °FOvercast.9 mph88%29.47 "HgN/A
Weather by CustomWeather, © 2015

See weather overviewHow to use our weather pages